E5175 Weather Reports


time (UTC)temp
C
wind
direction
speed
KPH
gust
KPH
rain 1hr
cm
rain 24hr
cm
rain mn
cm
humidity
%
barometer
mb
20260504234520 16 0 20.9 30.6 0.00 0.00 0.00 34 1008.7
20260504233519 17 23 22.5 35.4 0.00 0.00 0.00 34 1008.9
20260504232519 16 0 20.9 33.8 0.00 0.00 0.00 35 1008.7
20260504231519 18 0 19.3 33.8 0.00 0.00 0.00 33 1008.6
20260504230519 17 0 19.3 27.4 0.00 0.00 0.00 33 1008.3
20260504225519 20 45 14.5 22.5 0.00 0.00 0.00 30 1008.7
20260504224519 20 270 6.4 20.9 0.00 0.00 0.00 30 1008.6
20260504223519 20 338 11.3 22.5 0.00 0.00 0.00 30 1008.5
20260504222519 19 315 9.7 17.7 0.00 0.00 0.00 32 1008.3
20260504221518 19 23 11.3 22.5 0.00 0.00 0.00 32 1008.7
20260504220519 19 0 11.3 20.9 0.00 0.00 0.00 32 1008.7
20260504215519 19 338 12.9 19.3 0.00 0.00 0.00 31 1009.0
20260504214519 19 0 14.5 24.1 0.00 0.00 0.00 31 1008.9
20260504213519 18 0 19.3 27.4 0.00 0.00 0.00 31 1008.9
20260504212518 19 45 16.1 25.7 0.00 0.00 0.00 31 1009.2
20260504211519 18 23 11.3 20.9 0.00 0.00 0.00 31 1009.0
20260504210519 19 45 14.5 22.5 0.00 0.00 0.00 31 1009.4
20260504205519 19 45 11.3 19.3 0.00 0.00 0.00 31 1009.5
20260504204519 19 338 14.5 24.1 0.00 0.00 0.00 30 1009.5
20260504203518 19 23 12.9 20.9 0.00 0.00 0.00 31 1009.5
20260504202519 19 23 11.3 22.5 0.00 0.00 0.00 31 1009.5
20260504201519 20 0 11.3 19.3 0.00 0.00 0.00 30 1009.8
20260504200519 18 45 4.8 14.5 0.00 0.00 0.00 31 1009.5
20260504195518 18 0 14.5 22.5 0.00 0.00 0.00 31 1009.8
20260504194519 19 23 11.3 33.8 0.00 0.00 0.00 31 1010.1
20260504193519 19 45 11.3 17.7 0.00 0.00 0.00 31 1009.8
20260504192518 18 23 12.9 25.7 0.00 0.00 0.00 30 1010.0
20260504191519 18 0 12.9 27.4 0.00 0.00 0.00 31 1010.0
20260504190519 18 0 17.7 27.4 0.00 0.00 0.00 30 1010.0
20260504185519 19 0 19.3 32.2 0.00 0.00 0.00 30 1010.4
20260504184519 18 0 17.7 25.7 0.00 0.00 0.00 31 1010.2
20260504183518 18 0 12.9 24.1 0.00 0.00 0.00 31 1010.4
20260504182519 18 45 14.5 22.5 0.00 0.00 0.00 32 1010.1
20260504181518 18 23 14.5 25.7 0.00 0.00 0.00 31 1010.3
20260504180519 18 45 16.1 27.4 0.00 0.00 0.00 31 1010.3
20260504175518 18 0 19.3 35.4 0.00 0.00 0.00 32 1010.1
20260504174519 18 45 17.7 32.2 0.00 0.00 0.00 31 1010.2
20260504173519 18 45 16.1 27.4 0.00 0.00 0.00 33 1009.9
20260504172518 18 45 19.3 29.0 0.00 0.00 0.00 34 1009.9
20260504171518 18 45 17.7 32.2 0.00 0.00 0.00 35 1009.8
20260504170518 18 45 17.7 27.4 0.00 0.00 0.00 34 1009.9
20260504150518 13 248 4.8 11.3 0.00 0.00 0.00 47 1009.0
20260504140518 11 270 4.8 9.7 0.00 0.00 0.00 54 1009.6
20260504130518 5 293 4.8 9.7 0.00 0.00 0.00 72 1008.6
20260504110517 1 0.0 0.0 0.00 0.00 0.00 81 1008.5
20260504100518 2 0.0 0.0 0.00 0.00 0.00 75 1009.0
20260504081517 4 315 3.2 4.8 0.00 0.00 0.00 73 1009.6
20260504080517 4 315 3.2 3.2 0.00 0.00 0.00 71 1009.8
20260504050517 7 135 1.6 4.8 0.00 0.00 0.00 57 1010.3
20260504045519 8 135 1.6 4.8 0.00 0.00 0.00 52 1010.5
20260504044518 8 0.0 0.0 0.00 0.00 0.00 52 1010.5
20260504043518 8 0.0 1.6 0.00 0.00 0.00 51 1010.6
20260504042518 9 0.0 1.6 0.00 0.00 0.00 50 1010.6
20260504041518 9 0.0 1.6 0.00 0.00 0.00 47 1010.8
20260504040517 10 135 3.2 4.8 0.00 0.00 0.00 46 1010.9
20260504035518 10 0.0 1.6 0.00 0.00 0.00 44 1010.6
20260504034518 10 135 3.2 6.4 0.00 0.00 0.00 44 1010.8
20260504033518 11 0.0 1.6 0.00 0.00 0.00 44 1010.4
20260504032517 11 135 3.2 6.4 0.00 0.00 0.00 42 1010.4
20260504031518 12 0.0 0.0 0.00 0.00 0.00 41 1010.6
20260504030525 12 0.0 0.0 0.00 0.00 0.00 40 1010.6
20260504025518 13 0.0 1.6 0.00 0.00 0.00 39 1010.9
20260504024518 14 0.0 1.6 0.00 0.00 0.00 37 1010.8
20260504023518 15 0.0 3.2 0.00 0.00 0.00 37 1011.0
20260504022518 15 0.0 1.6 0.00 0.00 0.00 36 1011.0
20260504021518 16 0.0 1.6 0.00 0.00 0.00 36 1010.9
20260504020519 16 0 1.6 4.8 0.00 0.00 0.00 34 1010.9
20260504015518 17 23 3.2 4.8 0.00 0.00 0.00 32 1011.0
20260504014518 18 23 3.2 8.0 0.00 0.00 0.00 31 1010.7
20260504013518 18 23 8.0 14.5 0.00 0.00 0.00 31 1010.6
20260504012517 19 0 12.9 19.3 0.00 0.00 0.00 30 1010.0
20260504011518 19 338 9.7 16.1 0.00 0.00 0.00 28 1010.1
20260504010518 18 0 12.9 19.3 0.00 0.00 0.00 30 1009.9
20260504005518 19 23 12.9 22.5 0.00 0.00 0.00 30 1009.3
20260504004517 19 338 17.7 25.7 0.00 0.00 0.00 31 1009.9
20260504003518 20 338 16.1 25.7 0.00 0.00 0.00 28 1009.9
20260504002519 20 315 17.7 30.6 0.00 0.00 0.00 26 1010.4
20260504001517 19 338 19.3 29.0 0.00 0.00 0.00 29 1010.0
20260504000518 19 0 24.1 37.0 0.00 0.00 0.00 31 1009.8
20260503235518 19 0 24.1 35.4 0.00 0.00 0.00 31 1009.4